Location: Madrid
(40.4000°N, 3.6830°W)
Time: 07:31:22
(UTC+01:00)

ISS - Pass Details

Date: 28 November 2020
Orbit: 418 x 420 km, 51.6° (Epoch: 04 December)

Event Time Altitude Azimuth Distance (km) Brightness Sun altitude
Rises 19:46:23 0° 304° (NW) 2,363 0.7 -21.8°
Reaches altitude 10° 19:49:33 10° 337° (NNW) 1,499 -0.8 -22.4°
Enters shadow 19:49:50 11° 341° (NNW) 1,453 -0.9 -22.4°
